This is the latest recevied weather packets stored in our database for station/object IW3HBX-3. If no packets are shown the sender has not sent any weather packets the latest 1 day(s).
| Time | Temp. | Humidity | Pressure | Rain* | Wind** | Luminosity | Snow |
|---|---|---|---|---|---|---|---|
| 1777792482 | 18.89° C | 59% | 1020 hPa | 0 mm | - | 384 W/m² | - |
| 1777792174 | 18.89° C | 60% | 1020 hPa | 0 mm | - | 348 W/m² | - |
| 1777791874 | 18.89° C | 61% | 1020.1 hPa | 0 mm | - | 341 W/m² | - |
| 1777791574 | 18.33° C | 61% | 1020 hPa | 0 mm | - | 330 W/m² | - |
| 1777791274 | 17.78° C | 61% | 1020 hPa | 0 mm | - | 323 W/m² | - |
| 1777790974 | 17.78° C | 62% | 1020.1 hPa | 0 mm | - | 303 W/m² | - |
| 1777790375 | 17.78° C | 62% | 1020 hPa | 0 mm | - | 265 W/m² | - |
| 1777790075 | 17.78° C | 63% | 1020 hPa | 0 mm | - | 251 W/m² | - |
| 1777789776 | 17.22° C | 62% | 1020 hPa | 0 mm | - | 254 W/m² | - |
| 1777789476 | 17.22° C | 63% | 1020 hPa | 0 mm | - | 212 W/m² | - |
| 1777789176 | 17.22° C | 63% | 1020 hPa | 0 mm | - | 205 W/m² | - |
| 1777788876 | 16.67° C | 64% | 1020 hPa | 0 mm | - | 188 W/m² | - |
| 1777788576 | 16.67° C | 64% | 1020 hPa | 0 mm | - | 181 W/m² | - |
| 1777788277 | 16.67° C | 64% | 1020 hPa | 0 mm | - | 194 W/m² | - |
| 1777787977 | 16.67° C | 64% | 1019.8 hPa | 0 mm | - | 177 W/m² | - |
| 1777787677 | 16.67° C | 63% | 1019.9 hPa | 0 mm | - | 162 W/m² | - |
| 1777787377 | 16.11° C | 64% | 1019.9 hPa | 0 mm | - | 149 W/m² | - |
| 1777787078 | 15.56° C | 66% | 1019.8 hPa | 0 mm | - | 132 W/m² | - |
| 1777786778 | 16.11° C | 65% | 1019.9 hPa | 0 mm | - | 120 W/m² | - |
| 1777786478 | 15.56° C | 65% | 1019.8 hPa | 0 mm | - | 111 W/m² | - |
| 1777786179 | 15.56° C | 67% | 1019.9 hPa | 0 mm | - | 100 W/m² | - |
| 1777785879 | 15° C | 67% | 1019.8 hPa | 0 mm | - | 89 W/m² | - |
| 1777785579 | 14.44° C | 68% | 1019.8 hPa | 0 mm | - | 76 W/m² | - |
| 1777785279 | 15° C | 68% | 1019.9 hPa | 0 mm | - | 70 W/m² | - |
| 1777784979 | 14.44° C | 69% | 1019.9 hPa | 0 mm | - | 63 W/m² | - |
* Rain latest hour (hover to see other rain measurements)
** Current wind speed in m/s (hover to see current wind gust speed)